This demonstration page uses our WeatherBlox Daily Observations layout. Learn more.

Left ArrowRight Arrow

Hourly Observations for November 17, 2021

Temp ( °F °C ) Dew Point ( °F °C ) Humidity (%) Winds ( mph kmh ) Pressure ( in mb ) Visibility ( mi km ) Precip ( " mm )
12:15 am 00:15 Clear 36 2 34 1 93 93 N N/A 30.29 1026 10 16 N/A
12:35 am 00:35 Clear 34 1 34 1 100 100 N N/A 30.28 1025 10 16 N/A
12:55 am 00:55 Clear 34 1 34 1 100 100 N 3 6 30.29 1026 10 16 N/A
1:15 am 01:15 Clear 36 2 36 2 100 100 N N/A 30.28 1025 10 16 N/A
1:35 am 01:35 Clear 34 1 34 1 100 100 N N/A 30.28 1025 10 16 N/A
1:55 am 01:55 Clear 34 1 34 1 100 100 N 3 6 30.28 1025 10 16 N/A
2:15 am 02:15 Clear 34 1 34 1 100 100 N N/A 30.27 1025 10 16 N/A
2:35 am 02:35 Clear 36 2 34 1 93 93 N N/A 30.27 1025 10 16 N/A
2:55 am 02:55 Clear 36 2 36 2 100 100 N N/A 30.27 1025 10 16 N/A
3:15 am 03:15 Clear 34 1 34 1 100 100 NNE 3 6 30.27 1025 10 16 N/A
3:35 am 03:35 Clear 34 1 34 1 100 100 N N/A 30.26 1025 10 16 N/A
3:55 am 03:55 Clear 36 2 36 2 100 100 N 3 6 30.26 1025 10 16 N/A
4:15 am 04:15 Clear 36 2 34 1 93 93 N 5 7 30.26 1025 10 16 N/A
4:35 am 04:35 Clear 36 2 36 2 100 100 N 5 7 30.27 1025 10 16 N/A
4:55 am 04:55 Clear 37 3 36 2 93 93 NE 5 7 30.26 1025 10 16 N/A
5:15 am 05:15 Clear 37 3 36 2 93 93 N 3 6 30.27 1025 10 16 N/A
5:35 am 05:35 Clear 36 2 36 2 100 100 NNE 5 7 30.28 1025 10 16 N/A
5:55 am 05:55 Clear 36 2 36 2 100 100 NE 3 6 30.28 1025 10 16 N/A
6:15 am 06:15 Clear 36 2 36 2 100 100 NNE 3 6 30.28 1025 10 16 N/A
6:35 am 06:35 Clear 36 2 36 2 100 100 N N/A 30.28 1025 10 16 N/A
6:55 am 06:55 Clear 36 2 36 2 100 100 N N/A 30.28 1025 10 16 N/A
7:15 am 07:15 Sunny 36 2 36 2 100 100 N N/A 30.29 1026 10 16 N/A
7:35 am 07:35 Sunny 36 2 36 2 100 100 N 3 6 30.29 1026 10 16 N/A
7:55 am 07:55 Partly Cloudy 37 3 36 2 93 93 N N/A 30.30 1026 10 16 N/A
8:15 am 08:15 Cloudy 37 3 36 2 93 93 N N/A 30.30 1026 10 16 N/A
8:35 am 08:35 Cloudy 39 4 36 2 87 87 N N/A 30.31 1026 10 16 N/A
8:55 am 08:55 Cloudy 41 5 37 3 87 87 N N/A 30.29 1026 10 16 N/A
9:15 am 09:15 Mostly Cloudy 41 5 37 3 87 87 N N/A 30.29 1026 10 16 N/A
9:35 am 09:35 Partly Cloudy 43 6 37 3 81 81 N N/A 30.28 1025 10 16 N/A
9:55 am 09:55 Sunny 45 7 39 4 81 81 N N/A 30.29 1026 10 16 N/A
10:15 am 10:15 Sunny 46 8 41 5 82 82 N N/A 30.29 1026 10 16 N/A
10:35 am 10:35 Partly Cloudy 46 8 41 5 82 82 N N/A 30.28 1025 10 16 N/A
3:55 pm 15:55 Sunny 63 17 46 8 56 56 S 5 7 30.15 1021 10 16 N/A
4:15 pm 16:15 Sunny 63 17 46 8 56 56 S 3 6 30.15 1021 10 16 N/A
4:35 pm 16:35 Sunny 61 16 46 8 59 59 SE 5 7 30.15 1021 10 16 N/A
4:55 pm 16:55 Clear 61 16 46 8 59 59 SSE 6 9 30.15 1021 10 16 N/A
5:15 pm 17:15 Clear 61 16 46 8 59 59 SSE 8 13 30.15 1021 10 16 N/A
5:35 pm 17:35 Clear 59 15 46 8 63 63 SSE 6 9 30.15 1021 10 16 N/A
5:55 pm 17:55 Clear 59 15 46 8 63 63 SSE 7 11 30.15 1021 10 16 N/A
6:15 pm 18:15 Clear 59 15 46 8 63 63 SE 5 7 30.15 1021 10 16 N/A
6:35 pm 18:35 Clear 57 14 46 8 67 67 N N/A 30.15 1021 10 16 N/A
6:55 pm 18:55 Clear 55 13 46 8 72 72 S 3 6 30.15 1021 10 16 N/A
7:15 pm 19:15 Clear 54 12 46 8 77 77 S 3 6 30.15 1021 10 16 N/A
7:35 pm 19:35 Clear 55 13 46 8 72 72 S 3 6 30.15 1021 10 16 N/A
7:55 pm 19:55 Clear 52 11 46 8 82 82 N N/A 30.15 1021 10 16 N/A
8:15 pm 20:15 Clear 52 11 46 8 82 82 N N/A 30.15 1021 10 16 N/A
8:35 pm 20:35 Clear 50 10 45 7 82 82 N N/A 30.15 1021 10 16 N/A
8:55 pm 20:55 Clear 54 12 46 8 77 77 S 6 9 30.14 1021 10 16 N/A
9:15 pm 21:15 Clear 46 8 45 7 93 93 SW 3 6 30.15 1021 10 16 N/A
9:35 pm 21:35 Clear 48 9 45 7 87 87 SSW 3 6 30.14 1021 10 16 N/A
9:55 pm 21:55 Clear 50 10 46 8 88 88 S 3 6 30.14 1021 10 16 N/A
10:15 pm 22:15 Clear 46 8 45 7 93 93 N N/A 30.14 1021 10 16 N/A
10:35 pm 22:35 Clear 45 7 45 7 100 100 S 3 6 30.14 1021 10 16 N/A
10:55 pm 22:55 Clear 45 7 45 7 100 100 N N/A 30.14 1021 10 16 N/A
11:15 pm 23:15 Clear 45 7 45 7 100 100 SSW 5 7 30.14 1021 10 16 N/A
11:35 pm 23:35 Clear 45 7 43 6 93 93 S 5 7 30.14 1021 10 16 N/A
11:55 pm 23:55 Clear 43 6 43 6 100 100 SW 3 6 30.13 1020 10 16 N/A

Powered by AerisWeather